• In Hungary
  • List of Countries
  • For 7 days
  • Water Temperature
  • Satellite Maps
  • Weather Map
  • News
  • Weather Widgets
  • user-avatar
    Login

    Hourly Weather Kon Tum

    Today, 24 November, Friday

    Time Temperature Precipitation Wind Pressure Humidity
    00:00 +23°C° 0.2 mm 2 mps 710 mmHg 90%
    01:00 +23°C° 0 mm 2 mps 710 mmHg 89%
    02:00 +23°C° 0.2 mm 2 mps 710 mmHg 89%
    03:00 +23°C° 0.2 mm 2 mps 710 mmHg 88%
    04:00 +23°C° 0.2 mm 2 mps 710 mmHg 88%
    05:00 +23°C° 0.6 mm 2 mps 710 mmHg 87%
    06:00 +23°C° 0.6 mm 2 mps 711 mmHg 87%
    07:00 +23°C° 0 mm 2 mps 711 mmHg 85%
    08:00 +24°C° 0.1 mm 2 mps 711 mmHg 81%
    09:00 +25°C° 0.1 mm 3 mps 712 mmHg 76%
    10:00 +26°C° 0.1 mm 4 mps 712 mmHg 71%
    11:00 +27°C° 0 mm 4 mps 712 mmHg 69%
    12:00 +27°C° 0 mm 4 mps 712 mmHg 67%
    13:00 +28°C° 0 mm 4 mps 711 mmHg 65%
    14:00 +27°C° 0 mm 4 mps 711 mmHg 67%
    15:00 +27°C° 0 mm 3 mps 711 mmHg 69%
    16:00 +26°C° 0 mm 3 mps 710 mmHg 71%
    17:00 +25°C° 0 mm 3 mps 710 mmHg 74%
    18:00 +23°C° 0 mm 2 mps 710 mmHg 78%
    19:00 +21°C° 0 mm 2 mps 711 mmHg 81%
    20:00 +21°C° 0 mm 2 mps 711 mmHg 82%
    21:00 +21°C° 0 mm 2 mps 711 mmHg 82%
    22:00 +21°C° 0 mm 2 mps 711 mmHg 83%
    23:00 +21°C° 0 mm 2 mps 711 mmHg 83%

    Tomorrow, 25 November, Saturday

    Time Temperature Precipitation Wind Pressure Humidity
    00:00 +21°C° 0 mm 2 mps 711 mmHg 84%
    01:00 +21°C° 0 mm 2 mps 711 mmHg 84%
    02:00 +21°C° 0 mm 2 mps 711 mmHg 85%
    03:00 +21°C° 0 mm 2 mps 710 mmHg 86%
    04:00 +20°C° 0 mm 2 mps 710 mmHg 86%
    05:00 +21°C° 0.1 mm 2 mps 710 mmHg 85%
    06:00 +21°C° 0.1 mm 2 mps 711 mmHg 84%
    07:00 +23°C° 0.1 mm 2 mps 711 mmHg 83%
    08:00 +25°C° 0.1 mm 2 mps 711 mmHg 78%
    09:00 +26°C° 0.1 mm 3 mps 712 mmHg 72%
    10:00 +28°C° 0.1 mm 4 mps 712 mmHg 66%
    11:00 +28°C° 0.1 mm 4 mps 712 mmHg 66%
    12:00 +28°C° 0.1 mm 4 mps 712 mmHg 66%
    13:00 +28°C° 0.1 mm 4 mps 711 mmHg 66%
    14:00 +27°C° 0 mm 3 mps 711 mmHg 69%
    15:00 +27°C° 0 mm 3 mps 710 mmHg 73%
    16:00 +26°C° 0 mm 2 mps 710 mmHg 76%
    17:00 +25°C° 0 mm 2 mps 710 mmHg 78%
    18:00 +24°C° 0 mm 2 mps 711 mmHg 80%
    19:00 +23°C° 0 mm 2 mps 711 mmHg 83%
    20:00 +23°C° 0.1 mm 2 mps 711 mmHg 84%
    21:00 +23°C° 0.1 mm 2 mps 712 mmHg 84%
    22:00 +23°C° 0.1 mm 2 mps 712 mmHg 85%
    23:00 +23°C° 0.1 mm 2 mps 712 mmHg 86%

    Day after tomorrow, 26 November, Sunday

    Time Temperature Precipitation Wind Pressure Humidity
    00:00 +23°C° 0.1 mm 2 mps 711 mmHg 86%
    01:00 +23°C° 0.1 mm 2 mps 711 mmHg 87%
    02:00 +23°C° 0.2 mm 2 mps 711 mmHg 87%
    03:00 +23°C° 0.2 mm 2 mps 710 mmHg 88%
    04:00 +21°C° 0.2 mm 2 mps 710 mmHg 88%
    05:00 +23°C° 0.2 mm 2 mps 710 mmHg 87%
    06:00 +23°C° 0.2 mm 2 mps 711 mmHg 87%
    07:00 +24°C° 0.2 mm 2 mps 711 mmHg 86%
    08:00 +25°C° 0.3 mm 2 mps 712 mmHg 81%
    09:00 +27°C° 0.3 mm 3 mps 712 mmHg 75%
    10:00 +28°C° 0.3 mm 3 mps 712 mmHg 69%
    11:00 +28°C° 0.7 mm 3 mps 712 mmHg 73%
    12:00 +27°C° 0.7 mm 3 mps 711 mmHg 76%
    13:00 +27°C° 0.7 mm 3 mps 710 mmHg 79%
    14:00 +27°C° 0.9 mm 2 mps 710 mmHg 80%
    15:00 +26°C° 0.9 mm 2 mps 709 mmHg 82%
    16:00 +26°C° 0.9 mm 2 mps 709 mmHg 83%
    17:00 +25°C° 0.8 mm 2 mps 709 mmHg 85%
    18:00 +24°C° 0.8 mm 2 mps 710 mmHg 88%
    19:00 +24°C° 0.8 mm 2 mps 710 mmHg 90%
    20:00 +24°C° 0.5 mm 2 mps 710 mmHg 91%
    21:00 +24°C° 0.5 mm 2 mps 711 mmHg 92%
    22:00 +24°C° 0.5 mm 2 mps 711 mmHg 92%
    23:00 +23°C° 0.3 mm 2 mps 711 mmHg 93%

    27 November, Monday

    Time Temperature Precipitation Wind Pressure Humidity
    00:00 +23°C° 0.3 mm 2 mps 710 mmHg 93%
    01:00 +23°C° 0.3 mm 2 mps 710 mmHg 94%
    02:00 +23°C° 0.3 mm 2 mps 709 mmHg 94%
    03:00 +23°C° 0.3 mm 2 mps 709 mmHg 94%
    04:00 +23°C° 0.3 mm 2 mps 709 mmHg 95%
    05:00 +23°C° 0.3 mm 2 mps 709 mmHg 93%
    06:00 +23°C° 0.3 mm 2 mps 710 mmHg 92%
    07:00 +24°C° 0.3 mm 2 mps 710 mmHg 91%
    08:00 +25°C° 0.1 mm 2 mps 710 mmHg 84%
    09:00 +27°C° 0.1 mm 3 mps 711 mmHg 77%
    10:00 +28°C° 0.1 mm 3 mps 711 mmHg 70%
    11:00 +29°C° 0.1 mm 3 mps 711 mmHg 68%
    12:00 +29°C° 0.1 mm 3 mps 710 mmHg 66%
    13:00 +29°C° 0.1 mm 3 mps 709 mmHg 64%
    14:00 +29°C° 0.1 mm 3 mps 709 mmHg 68%
    15:00 +28°C° 0.1 mm 3 mps 708 mmHg 72%
    16:00 +27°C° 0.1 mm 3 mps 708 mmHg 75%
    17:00 +26°C° 0 mm 2 mps 708 mmHg 79%
    18:00 +25°C° 0 mm 2 mps 709 mmHg 83%
    19:00 +23°C° 0 mm 2 mps 709 mmHg 88%
    20:00 +23°C° 0 mm 1 mps 709 mmHg 89%
    21:00 +23°C° 0 mm 1 mps 709 mmHg 90%
    22:00 +22°C° 0 mm 1 mps 710 mmHg 91%
    23:00 +22°C° 0 mm 1 mps 709 mmHg 91%

    28 November, Tuesday

    Time Temperature Precipitation Wind Pressure Humidity
    00:00 +22°C° 0 mm 1 mps 709 mmHg 91%
    01:00 +22°C° 0 mm 1 mps 708 mmHg 92%
    02:00 +22°C° 0 mm 1 mps 708 mmHg 92%
    03:00 +22°C° 0 mm 1 mps 708 mmHg 92%
    04:00 +22°C° 0 mm 1 mps 708 mmHg 93%
    05:00 +22°C° 0 mm 1 mps 708 mmHg 91%
    06:00 +23°C° 0 mm 1 mps 709 mmHg 90%
    07:00 +23°C° 0 mm 1 mps 709 mmHg 88%
    08:00 +25°C° 0 mm 2 mps 710 mmHg 81%
    09:00 +27°C° 0 mm 2 mps 710 mmHg 73%
    10:00 +29°C° 0 mm 3 mps 711 mmHg 66%
    11:00 +29°C° 0.1 mm 3 mps 710 mmHg 65%
    12:00 +30°C° 0.1 mm 3 mps 710 mmHg 64%
    13:00 +30°C° 0.1 mm 3 mps 709 mmHg 63%
    14:00 +29°C° 0.1 mm 3 mps 709 mmHg 68%
    15:00 +28°C° 0.1 mm 3 mps 708 mmHg 72%
    16:00 +27°C° 0.1 mm 2 mps 708 mmHg 76%
    17:00 +26°C° 0 mm 2 mps 709 mmHg 80%
    18:00 +25°C° 0 mm 2 mps 709 mmHg 84%
    19:00 +24°C° 0 mm 1 mps 709 mmHg 88%
    20:00 +23°C° 0 mm 1 mps 710 mmHg 89%
    21:00 +23°C° 0 mm 1 mps 710 mmHg 90%
    22:00 +23°C° 0 mm 1 mps 710 mmHg 91%
    23:00 +23°C° 0 mm 1 mps 709 mmHg 91%

    29 November, Wednesday

    Time Temperature Precipitation Wind Pressure Humidity
    00:00 +22°C° 0 mm 1 mps 709 mmHg 92%
    01:00 +22°C° 0 mm 1 mps 708 mmHg 92%
    02:00 +22°C° 0 mm 1 mps 708 mmHg 93%
    03:00 +22°C° 0 mm 1 mps 708 mmHg 93%
    04:00 +22°C° 0 mm 1 mps 708 mmHg 93%
    05:00 +22°C° 0 mm 1 mps 709 mmHg 91%
    06:00 +23°C° 0 mm 1 mps 709 mmHg 90%
    07:00 +23°C° 0 mm 1 mps 710 mmHg 89%
    08:00 +25°C° 0 mm 2 mps 710 mmHg 81%
    09:00 +27°C° 0 mm 2 mps 710 mmHg 73%
    10:00 +29°C° 0 mm 3 mps 711 mmHg 65%
    11:00 +30°C° 0 mm 3 mps 710 mmHg 62%
    12:00 +30°C° 0 mm 3 mps 709 mmHg 59%
    13:00 +31°C° 0 mm 3 mps 708 mmHg 56%
    14:00 +30°C° 0 mm 3 mps 708 mmHg 59%
    15:00 +30°C° 0 mm 2 mps 708 mmHg 62%
    16:00 +29°C° 0 mm 2 mps 708 mmHg 65%
    17:00 +27°C° 0 mm 2 mps 708 mmHg 72%
    18:00 +25°C° 0 mm 2 mps 708 mmHg 80%
    19:00 +24°C° 0 mm 1 mps 709 mmHg 87%
    20:00 +23°C° 0 mm 1 mps 709 mmHg 89%
    21:00 +23°C° 0 mm 1 mps 709 mmHg 91%
    22:00 +22°C° 0 mm 1 mps 709 mmHg 93%
    23:00 +22°C° 0 mm 1 mps 709 mmHg 93%
    Show more